Latest  Newer  Older  Last 2 hours slideshow  Last 24 hours slideshow  Refresh every 5 minutes 
Current image  Latest image  Rain/snow radar  Cloud coverage sat images 

All time is UTC (add 2 hours to UTC in wintertime, 3 hours to UTC in DST for Latvia local time)

2020/04/02 21:50 EVRA 022150Z 21019G31KT 9999 SCT047 07/M01 Q0991 NOSIG
2020/04/02 21:50 EVLA 022150Z AUTO 22030G41KT 9999 OVC031/// 07/02 Q0991
2020/04/02 21:50 EVVA 022150Z AUTO 23022KT 9999 SCT017 BKN021 OVC038 04/02 Q0987 RERA
2020/04/02 21:50 EYKA 022150Z AUTO 21012KT 9999 OVC054/// 06/M03 Q1000
2020/04/02 21:50 EYPA 022150Z AUTO 21015G25KT 190V250 9999 BKN044/// 06/02 Q0994
2020/04/02 21:50 EYSA 022150Z 21016G26KT 9999 FEW048 OVC055 06/M00 Q0996 BLU NOSIG
2020/04/02 21:50 EYVI 022150Z 21013KT CAVOK 05/M04 Q1001 NOSIG

2020/04/02 21:50 EEKE 022150Z AUTO 24018KT 9999NDV -RA SCT011 OVC014 03/02 Q0984
2020/04/02 10:50 EEPU 021050Z 22019KT 9999 BKN018 08/04 Q0992
2020/04/02 21:50 EETN 022150Z 23018G28KT 190V260 9999 -SHRASN SCT011 SCT016CB OVC023 02/00 Q0980 R08/09//95 NOSIG
2020/04/02 21:50 EETU 022150Z AUTO 21021G33KT 9999 OVC034/// 06/M00 Q0986
   RIGA AIRPORT     EVRA               56 55N  023 58E   10   X     T          6 LV
   LIEPAJA INTL     EVLA        26406  56 31N  021 06E    4   X                8 LV
   VENTPILS         EVVA               57 21N  021 33E    6   X                8 LV
   KAUNAS           EYKA               54 54N  023 55E   77   X     T          6 LT
   PALANGA INTL     EYPA               55 55N  021 03E   10   X                6 LT
   SIAULIAI INTL    EYSA               55 54N  023 24E  135   X     T          6 LT
   VILNIUS INTL     EYVI        26730  54 38N  025 17E  197   X     T          6 LT
   KARDLA           EEKA        26116  58 59N  022 50E    4   X                8 EE
   KURESSAARE       EEKE               58 14N  022 31E    4   X                8 EE
   PARNU            EEPU               58 25N  024 28E   14   X                8 EE
   TALLINN          EETN        26038  59 24N  024 49E   40   X     T          8 EE
   TARTU            EETU               58 19N  026 41E   67   X                8 EE